• In Romania
  • List of Countries
  • For 7 days
  • Water Temperature
  • Satellite Maps
  • Weather Map
  • Weather Widgets
  • user-avatar
    Login

    Hourly Weather Otrada

    Today, 20 May, Sunday

    Time Temperature Precipitation Wind Pressure Humidity
    00:00 +13°C° 0 mm 2 mps 740 mmHg 96%
    01:00 +12°C° 0 mm 2 mps 741 mmHg 96%
    02:00 +12°C° 0 mm 2 mps 741 mmHg 97%
    03:00 +10°C° 0 mm 2 mps 741 mmHg 97%
    04:00 +10°C° 0 mm 2 mps 742 mmHg 96%
    05:00 +11°C° 0 mm 3 mps 742 mmHg 96%
    06:00 +11°C° 0 mm 3 mps 742 mmHg 95%
    07:00 +11°C° 0 mm 3 mps 743 mmHg 93%
    08:00 +13°C° 0 mm 2 mps 743 mmHg 91%
    09:00 +14°C° 0 mm 2 mps 743 mmHg 89%
    10:00 +15°C° 0 mm 2 mps 743 mmHg 87%
    11:00 +15°C° 0 mm 2 mps 744 mmHg 85%
    12:00 +16°C° 0 mm 2 mps 744 mmHg 83%
    13:00 +16°C° 0.1 mm 3 mps 744 mmHg 81%
    14:00 +17°C° 0.1 mm 3 mps 744 mmHg 80%
    15:00 +18°C° 0.1 mm 3 mps 744 mmHg 78%
    16:00 +17°C° 0.2 mm 4 mps 744 mmHg 79%
    17:00 +17°C° 0.2 mm 4 mps 745 mmHg 80%
    18:00 +16°C° 0.2 mm 5 mps 745 mmHg 82%
    19:00 +15°C° 0 mm 5 mps 745 mmHg 83%
    20:00 +14°C° 0 mm 5 mps 745 mmHg 84%
    21:00 +13°C° 0 mm 5 mps 746 mmHg 85%
    22:00 +13°C° 0 mm 5 mps 746 mmHg 84%
    23:00 +12°C° 0 mm 5 mps 746 mmHg 82%

    Tomorrow, 21 May, Monday

    Time Temperature Precipitation Wind Pressure Humidity
    00:00 +12°C° 0 mm 5 mps 746 mmHg 81%
    01:00 +12°C° 0.1 mm 5 mps 747 mmHg 81%
    02:00 +10°C° 0.1 mm 5 mps 747 mmHg 81%
    03:00 +10°C° 0.1 mm 5 mps 747 mmHg 81%
    04:00 +9°C° 0.1 mm 6 mps 747 mmHg 82%
    05:00 +9°C° 0.1 mm 6 mps 748 mmHg 82%
    06:00 +9°C° 0.1 mm 6 mps 748 mmHg 83%
    07:00 +9°C° 0.1 mm 6 mps 748 mmHg 81%
    08:00 +10°C° 0.1 mm 7 mps 749 mmHg 79%
    09:00 +10°C° 0.1 mm 7 mps 749 mmHg 77%
    10:00 +10°C° 0 mm 7 mps 749 mmHg 76%
    11:00 +11°C° 0 mm 7 mps 749 mmHg 74%
    12:00 +11°C° 0 mm 7 mps 749 mmHg 73%
    13:00 +12°C° 0 mm 7 mps 749 mmHg 72%
    14:00 +12°C° 0 mm 7 mps 749 mmHg 71%
    15:00 +14°C° 0 mm 7 mps 749 mmHg 70%
    16:00 +14°C° 0 mm 7 mps 749 mmHg 71%
    17:00 +14°C° 0 mm 6 mps 749 mmHg 72%
    18:00 +14°C° 0 mm 6 mps 749 mmHg 73%
    19:00 +14°C° 0 mm 6 mps 749 mmHg 74%
    20:00 +13°C° 0 mm 6 mps 750 mmHg 75%
    21:00 +13°C° 0 mm 6 mps 750 mmHg 76%
    22:00 +13°C° 0 mm 6 mps 750 mmHg 77%
    23:00 +13°C° 0 mm 6 mps 750 mmHg 77%

    Day after tomorrow, 22 May, Tuesday

    Time Temperature Precipitation Wind Pressure Humidity
    00:00 +13°C° 0 mm 6 mps 750 mmHg 77%
    01:00 +11°C° 0.2 mm 6 mps 750 mmHg 79%
    02:00 +12°C° 0.2 mm 5 mps 750 mmHg 80%
    03:00 +12°C° 0.2 mm 5 mps 750 mmHg 82%
    04:00 +10°C° 0.1 mm 5 mps 750 mmHg 82%
    05:00 +10°C° 0.1 mm 5 mps 750 mmHg 82%
    06:00 +10°C° 0.1 mm 5 mps 750 mmHg 83%
    07:00 +11°C° 0.1 mm 6 mps 751 mmHg 82%
    08:00 +13°C° 0.1 mm 6 mps 751 mmHg 81%
    09:00 +14°C° 0.1 mm 6 mps 751 mmHg 81%
    10:00 +15°C° 0 mm 6 mps 751 mmHg 80%
    11:00 +16°C° 0 mm 6 mps 751 mmHg 79%
    12:00 +17°C° 0 mm 6 mps 751 mmHg 78%
    13:00 +19°C° 0 mm 5 mps 751 mmHg 78%
    14:00 +19°C° 0 mm 5 mps 751 mmHg 78%
    15:00 +20°C° 0 mm 4 mps 751 mmHg 79%
    16:00 +20°C° 0 mm 3 mps 750 mmHg 81%
    17:00 +20°C° 0 mm 2 mps 750 mmHg 83%
    18:00 +20°C° 0 mm 2 mps 750 mmHg 85%
    19:00 +19°C° 0.1 mm 2 mps 750 mmHg 87%
    20:00 +19°C° 0.1 mm 2 mps 750 mmHg 89%
    21:00 +18°C° 0.1 mm 2 mps 750 mmHg 92%
    22:00 +17°C° 0.4 mm 2 mps 750 mmHg 93%
    23:00 +17°C° 0.4 mm 2 mps 750 mmHg 94%

    23 May, Wednesday

    Time Temperature Precipitation Wind Pressure Humidity
    00:00 +16°C° 0.4 mm 3 mps 750 mmHg 95%
    01:00 +16°C° 0.1 mm 2 mps 750 mmHg 95%
    02:00 +15°C° 0.1 mm 2 mps 750 mmHg 95%
    03:00 +15°C° 0.1 mm 2 mps 750 mmHg 95%
    04:00 +15°C° 0.1 mm 2 mps 750 mmHg 95%
    05:00 +15°C° 0.1 mm 2 mps 750 mmHg 94%
    06:00 +16°C° 0.1 mm 2 mps 751 mmHg 94%
    07:00 +17°C° 0 mm 2 mps 751 mmHg 90%
    08:00 +19°C° 0 mm 2 mps 750 mmHg 86%
    09:00 +20°C° 0 mm 2 mps 750 mmHg 81%
    10:00 +21°C° 0.2 mm 2 mps 750 mmHg 78%
    11:00 +23°C° 0.2 mm 2 mps 750 mmHg 74%
    12:00 +25°C° 0.2 mm 2 mps 750 mmHg 70%
    13:00 +25°C° 0.5 mm 3 mps 750 mmHg 67%
    14:00 +26°C° 0.5 mm 3 mps 749 mmHg 64%
    15:00 +26°C° 0.5 mm 3 mps 749 mmHg 62%
    16:00 +26°C° 0.2 mm 3 mps 749 mmHg 65%
    17:00 +26°C° 0.2 mm 3 mps 748 mmHg 69%
    18:00 +25°C° 0.2 mm 2 mps 748 mmHg 72%
    19:00 +24°C° 0.1 mm 2 mps 748 mmHg 77%
    20:00 +21°C° 0.1 mm 2 mps 748 mmHg 81%
    21:00 +19°C° 0.1 mm 2 mps 748 mmHg 86%
    22:00 +19°C° 0.3 mm 2 mps 747 mmHg 88%
    23:00 +18°C° 0.3 mm 2 mps 747 mmHg 90%

    24 May, Thursday

    Time Temperature Precipitation Wind Pressure Humidity
    00:00 +18°C° 0.3 mm 2 mps 747 mmHg 92%
    01:00 +18°C° 0.4 mm 2 mps 747 mmHg 93%
    02:00 +18°C° 0.4 mm 2 mps 746 mmHg 94%
    03:00 +17°C° 0.4 mm 2 mps 746 mmHg 95%
    04:00 +18°C° 0 mm 2 mps 746 mmHg 94%
    05:00 +18°C° 0 mm 2 mps 746 mmHg 94%
    06:00 +18°C° 0 mm 2 mps 746 mmHg 94%
    07:00 +19°C° 0.6 mm 2 mps 745 mmHg 89%
    08:00 +20°C° 0.6 mm 2 mps 745 mmHg 85%
    09:00 +23°C° 0.6 mm 2 mps 745 mmHg 80%
    10:00 +23°C° 0.6 mm 2 mps 745 mmHg 78%
    11:00 +24°C° 0.6 mm 3 mps 745 mmHg 75%
    12:00 +23°C° 0.6 mm 4 mps 745 mmHg 72%
    13:00 +23°C° 0.7 mm 4 mps 745 mmHg 71%
    14:00 +23°C° 0.7 mm 4 mps 745 mmHg 69%
    15:00 +23°C° 0.7 mm 4 mps 744 mmHg 68%
    16:00 +24°C° 0.1 mm 3 mps 744 mmHg 70%
    17:00 +24°C° 0.1 mm 3 mps 744 mmHg 73%
    18:00 +24°C° 0.1 mm 2 mps 744 mmHg 75%
    19:00 +23°C° 0.1 mm 2 mps 744 mmHg 77%
    20:00 +20°C° 0.1 mm 2 mps 744 mmHg 80%
    21:00 +19°C° 0.1 mm 2 mps 744 mmHg 83%
    22:00 +18°C° 0.6 mm 2 mps 744 mmHg 84%
    23:00 +18°C° 0.6 mm 2 mps 744 mmHg 86%

    25 May, Friday

    Time Temperature Precipitation Wind Pressure Humidity
    00:00 +18°C° 0.6 mm 1 mps 744 mmHg 87%
    01:00 +18°C° 0.1 mm 1 mps 744 mmHg 88%
    02:00 +18°C° 0.1 mm 1 mps 744 mmHg 89%
    03:00 +16°C° 0.1 mm 1 mps 744 mmHg 90%
    04:00 +18°C° 0.1 mm 1 mps 744 mmHg 90%
    05:00 +18°C° 0.1 mm 1 mps 744 mmHg 90%
    06:00 +18°C° 0.1 mm 1 mps 744 mmHg 89%
    07:00 +18°C° 0.2 mm 2 mps 744 mmHg 88%
    08:00 +19°C° 0.2 mm 3 mps 745 mmHg 87%
    09:00 +20°C° 0.2 mm 4 mps 745 mmHg 86%
    10:00 +20°C° 0.5 mm 5 mps 746 mmHg 84%
    11:00 +20°C° 0.5 mm 5 mps 746 mmHg 83%
    12:00 +21°C° 0.5 mm 6 mps 746 mmHg 81%
    13:00 +20°C° 0.4 mm 7 mps 747 mmHg 82%
    14:00 +18°C° 0.4 mm 7 mps 747 mmHg 83%
    15:00 +17°C° 0.4 mm 8 mps 748 mmHg 84%
    16:00 +16°C° 0 mm 7 mps 748 mmHg 85%
    17:00 +15°C° 0 mm 7 mps 749 mmHg 85%
    18:00 +12°C° 0 mm 7 mps 749 mmHg 85%
    19:00 +12°C° 0 mm 7 mps 750 mmHg 84%
    20:00 +11°C° 0 mm 7 mps 750 mmHg 83%
    21:00 +10°C° 0 mm 7 mps 751 mmHg 82%
    22:00 +10°C° 0 mm 7 mps 751 mmHg 81%
    23:00 +9°C° 0 mm 7 mps 751 mmHg 81%
    Show more